Printer-friendly version
Follow the MPC on Twitter Follow the MPC on Facebook The MPC blog
Minor Planet Center

MPEC 2006-E20 : 2006 EX

The following Minor Planet Electronic Circular may be linked-to from your own Web pages, but must not otherwise be redistributed electronically.

A form allowing access to any MPEC is at the bottom of this page.


Read MPEC 2006-E19 Read MPEC 2006-E21


M.P.E.C. 2006-E20                                Issued 2006 Mar. 6, 20:10 UT

     The Minor Planet Electronic Circulars contain information on unusual
         minor planets and routine data on comets.  They are published
   on behalf of Commission 20 of the International Astronomical Union by the
          Minor Planet Center, Smithsonian Astrophysical Observatory,
                          Cambridge, MA 02138, U.S.A.

                  Supported in part by the Brinson Foundation
                  Supported in part by the TABASGO Foundation
             Prepared using the Tamkin Foundation Computer Network

                              MPC@CFA.HARVARD.EDU
          URL http://cfa-www.harvard.edu/iau/mpc.html  ISSN 1523-6714

                                    2006 EX

Observations:
     K06E00X* C2006 03 04.24597 08 24 57.74 +21 34 45.9          21.4 V EE020G96
     K06E00X  C2006 03 04.25223 08 24 57.85 +21 36 18.8          21.3 V EE020G96
     K06E00X  C2006 03 04.25827 08 24 58.06 +21 37 46.1          21.5 V EE020G96
     K06E00X  C2006 03 04.26441 08 24 58.17 +21 39 19.2          21.1 V EE020G96
     K06E00X  C2006 03 04.27046 08 24 58.37 +21 40 52.6          21.2 V EE020G96
     K06E00X  C2006 03 04.27998 08 24 58.66 +21 43 08.8          21.7 V EE020G96
     K06E00X  C2006 03 04.29958 08 24 59.24 +21 47 59.0          21.7 V EE020G96
     K06E00X  C2006 03 04.32613 08 25 00.12 +21 54 32.0          21.4 V EE020G96
     K06E00X  C2006 03 04.32659 08 25 00.12 +21 54 38.5          20.6 V EE020G96
     K06E00X  C2006 03 04.32700 08 25 00.15 +21 54 43.8          21.1 V EE020G96
     K06E00X  C2006 03 04.32742 08 25 00.12 +21 54 51.0          21.2 V EE020G96
     K06E00X  C2006 03 05.18581 08 26 02.94 +25 24 44.4          21.6 V EE020G96
     K06E00X  C2006 03 05.19155 08 26 03.15 +25 26 09.6          21.4 V EE020G96
     K06E00X  C2006 03 05.19724 08 26 03.33 +25 27 31.5          22.1 V EE020G96
     K06E00X  C2006 03 05.20296 08 26 03.44 +25 28 54.2          21.5 V EE020G96

Observer details:
G96 Mt. Lemmon Survey.  Observers R. A. Kowalski, R. E. Hill.  Measurers
    E. C. Beshore, E. J. Christensen, G. J. Garradd, A. R. Gibbs, A. D. Grauer,
    R. E. Hill, R. A. Kowalski, S. M. Larson, R. H. McNaught.  1.5-m reflector
    + CCD.

Orbital elements:
2006 EX                                                  Earth MOID = 0.0689 AU
Epoch 2006 Mar. 6.0 TT = JDT 2453800.5                  MPC
M 326.35645              (2000.0)            P               Q
n   0.84137503     Peri.   39.68172     -0.92674956     +0.35398958
a   1.1112445      Node   159.92761     -0.36271340     -0.93032260
e   0.0579676      Incl.   21.50325     +0.09784802     -0.09587100
P   1.17           H   25.0           G   0.15           U   8
Residuals in seconds of arc
060304 G96  0.4+  0.4+    060304 G96  0.3+  1.1-    060304 G96  0.5-  0.6+
060304 G96  0.4-  0.3+    060304 G96  0.2+  0.7-    060305 G96  0.0   1.5-
060304 G96 (0.3+  2.0-)   060304 G96  0.2+  0.6+    060305 G96  0.4+  0.7+
060304 G96  0.4-  0.0     060304 G96  0.0   0.3+    060305 G96  0.3+  0.3+
060304 G96 (0.0   3.7+)   060304 G96  0.2+  0.4-    060305 G96  0.7-  0.4+

Ephemeris:
2006 EX                  a,e,i = 1.11, 0.06, 22                  q = 1.0468
Date    TT    R. A. (2000) Decl.     Delta      r     Elong.  Phase     V
2006 03 06    08 27.04   +28 37.4    0.0901   1.059   136.2    40.4    21.5
2006 03 08    08 29.92   +35 59.1    0.0948   1.058   131.5    44.7    21.7
2006 03 10    08 33.40   +42 29.9    0.101    1.057   126.8    48.8    22.0
2006 03 12    08 37.53   +48 08.4    0.108    1.056   122.4    52.6    22.2
2006 03 14    08 42.34   +52 58.0    0.117    1.055   118.5    56.0    22.5
2006 03 16    08 47.88   +57 04.2    0.126    1.054   114.9    58.9    22.7

Kyle E. Smalley              (C) Copyright 2006 MPC           M.P.E.C. 2006-E20

Read MPEC 2006-E19 Read MPEC 2006-E21


MPEC number:

Enter an MPEC number in one of the following forms:

  • 1997-B01 (the full form)
  • J97B01 (the packed version of the full form)
  • B01 (the abbreviated form)

Valid HTML 4.01!